Location: Gro� Glienicke
(52.4675°N, 13.1079°E)
Time: 19:06:48
(UTC+00:00)

Cosmos 1656 Rocket - Pass Details

Date: 06 July 2020
Orbit: 796 x 845 km, 71.1° (Epoch: 11 August)

Event Time Altitude Azimuth Distance (km) Brightness Sun altitude
Rises 23:31:55 0° 329° (NNW) 3,314 7.7 -14.9°
Reaches altitude 10° 23:34:20 10° 330° (NNW) 2,380 6.9 -14.8°
Maximum altitude 23:39:47 83° 58° (ENE) 811 3.6 -14.7°
Enters shadow 23:44:36 14° 147° (SSE) 2,136 5.4 -14.7°
